Torna al catalogo

STARLINK-31572

AttivoComunicazioniVLEO
NORAD 59333·PAYLOAD·🇺🇸 United States

Lanciato Mar 25, 2024 da Cape Canaveral Space Force Station

Loading…

Prossimi Passaggi (prossime 24 ore)

TLE

AggiornatoSource: CelesTrak SupGP

Epoca: Sep 15, 2026, 01:50 UTC

1 59333C 24057P   26258.07687500 -.00060695  00000+0 -21985-2 0  2589
2 59333  42.9996 208.8460 0001331 268.8463  45.6801 15.27607243    19

Traccia STARLINK-31572 in tempo reale con AllMySat

Download on the App Store